Simultaneous Nadir Overpasses (SNOs) Predictions

Prediction of SNOs between AQUA and METOP-B Satellite Orbit:

Table of predicted SNOs for the next 14.0 days since TLE Epoch: 3/29/2019
Index Date (AQUA) Time (AQUA) Lat,Lon (AQUA) SZA (AQUA ) Date (METOP-B) Time (METOP-B) Lat,Lon (METOP-B) SZA (METOP-B ) Distance(km) Time Diff (sec)
1 03/30/2019 11:11:45 -73.82,-173.60 109.91 03/30/2019 11:10:34 -73.82,-173.62 109.89 0.69 71
2 03/30/2019 12:01:14 73.91, -6.18 70.18 03/30/2019 12:01:13 73.88, -6.14 70.16 3.36 1
3 03/30/2019 12:50:41 -73.97, 161.34 109.77 03/30/2019 12:51:53 -73.95, 161.36 109.80 1.71 72
4 04/02/2019 06:46:02 -73.84,-107.23 110.98 04/02/2019 06:44:58 -73.81,-107.24 110.99 3.29 64
5 04/02/2019 07:35:30 73.88, 60.32 69.06 04/02/2019 07:35:37 73.87, 60.23 69.05 3.12 7
6 04/02/2019 08:25:01 -74.15,-132.63 110.68 04/02/2019 08:26:12 -74.19,-131.66 110.68 30.08 71
7 04/05/2019 02:20:17 -73.82, -40.75 112.08 04/05/2019 02:19:20 -73.85, -40.74 112.04 3.26 57
8 04/05/2019 03:09:46 73.91, 126.69 68.01 04/05/2019 03:09:59 73.90, 126.72 68.00 1.35 13
9 04/05/2019 03:59:22 -74.43, -66.88 111.45 04/05/2019 04:00:30 -74.42, -64.65 111.54 66.42 68
10 04/07/2019 21:54:34 -73.86, 25.61 113.11 04/07/2019 21:53:44 -73.84, 25.63 113.13 2.45 50
11 04/07/2019 22:44:02 73.90,-166.84 66.92 04/07/2019 22:44:23 73.89,-166.91 66.91 2.55 21
12 04/10/2019 17:28:50 -73.85, 92.06 114.18 04/10/2019 17:28:07 -73.87, 92.12 114.15 3.18 43
13 04/10/2019 18:18:19 73.94,-100.49 65.91 04/10/2019 18:18:46 73.92,-100.43 65.88 2.78 27




NCC Satellite Simultaneous Nadir Overpasses (SNOs) Prediction Service
